Location: Kumla
(59.1265°N, 15.1401°E)
Time: 09:37:14
(UTC+01:00)

Transit 2A - Pass Details

Date: 03 December 2023
Orbit: 600 x 953 km, 66.7° (Epoch: 22 February)

Event Time Altitude Azimuth Distance (km) Brightness Sun altitude
Rises 15:27:43 0° 180° (S) 3,159 9.9 -2.7°
Reaches altitude 10° 15:30:37 10° 165° (SSE) 2,176 8.7 -3.0°
Maximum altitude 15:34:17 21° 117° (ESE) 1,484 7.3 -3.4°
Drops below altitude 10° 15:37:45 10° 67° (ENE) 2,047 7.6 -3.7°
Enters shadow 15:39:09 - 58° (ENE) 2,489 8.0 -3.9°
Sets 15:40:23 0° 52° (NE) 2,920 - -4.0°
